Temperature
3 3 3 3 2 2 2 3 3 4 4 4 4 3 4 3 3 3 2 2 2 1 1 1 1 1 1 1 1 1 1 1 1 1 1 1 1 1 1 1 1 1 1 1
2 3 3 2 2 2 2 2 2 3 3 3 4 4 3 3 3 2 2 1 1 1 1 1 1 1 1 1 1 1 0 0 0 0 0 0 0 0 0 0 -0 -0 -0 -0
2 2 2 1 1 1 2 2 2 2 3 3 2 2 2 2 2 2 2 1 1 1 1 0 0 0 0 0 -0 -0 -0 -0 -0 -0 -0 -0 -1 -1 -1 -1 -1 -1 -1 -1
1 1 1 2 2 2 2 1 1 1 1 2 2 2 2 2 1 1 1 1 1 0 0 0 -0 -0 -0 -1 -1 -1 -1 -1 -1 -1 -1 -1 -1 -1 -1 -1 -2 -2 -2 -2
1 1 2 2 1 1 1 0 0 0 1 1 1 1 1 1 1 1 1 0 0 -0 -0 -0 -0 -0 -1 -1 -1 -1 -1 -1 -1 -1 -1 -1 -2 -2 -2 -2 -2 -2 -2 -2
1 1 1 2 1 1 1 -0 0 0 -0 -0 -0 -1 -1 1 0 0 -0 -0 -0 -1 -1 -1 -1 -1 -1 -1 -1 -1 -2 -1 -2 -2 -2 -2 -2 -2 -2 -3 -3 -3 -3 -3
-0 0 1 0 -0 1 0 0 0 0 -0 -0 -1 -1 -0 -0 -0 -1 -1 -1 -1 -1 -1 -1 -1 -1 -1 -2 -2 -2 -2 -2 -2 -2 -2 -2 -3 -3 -3 -3 -3 -3 -3 -3
-0 -0 0 -1 -1 -1 -1 0 0 0 -0 -1 -1 -1 -1 -1 -1 -1 -1 -1 -2 -2 -2 -2 -2 -2 -2 -2 -2 -2 -2 -2 -3 -3 -3 -3 -3 -3 -3 -4 -4 -4 -4 -4
-1 -0 -0 -1 -1 -0 -0 -0 -0 -1 -1 -1 -1 -2 -2 -2 -2 -2 -2 -2 -2 -2 -2 -2 -2 -2 -2 -3 -3 -3 -3 -3 -3 -3 -3 -4 -4 -4 -4 -4 -4 -4 -4 -4
-1 -1 -1 -0 -0 -0 -1 -1 -1 -1 -1 -1 -2 -2 -2 -2 -3 -3 -3 -3 -3 -3 -3 -3 -3 -3 -3 -3 -3 -3 -3 -3 -4 -4 -4 -4 -4 -4 -4 -5 -5 -5 -5 -5
-2 -2 -1 -1 -1 -1 -1 -1 -2 -2 -2 -2 -2 -3 -3 -3 -3 -3 -3 -3 -3 -3 -3 -3 -3 -3 -4 -4 -4 -4 -4 -4 -4 -4 -4 -4 -4 -5 -5 -5 -5 -5 -5 -5
-2 -2 -2 -1 -1 -1 -2 -2 -2 -2 -3 -3 -3 -3 -3 -3 -3 -4 -4 -4 -4 -4 -4 -4 -4 -4 -4 -4 -4 -4 -4 -4 -5 -5 -5 -5 -5 -5 -5 -5 -5 -5 -5 -5
-1 -1 -1 -2 -2 -2 -2 -2 -3 -3 -3 -3 -3 -4 -4 -4 -4 -4 -4 -4 -4 -4 -4 -4 -4 -4 -4 -4 -5 -5 -5 -5 -5 -5 -5 -5 -5 -5 -5 -5 -5 -5 -5 -5
-2 -2 -3 -3 -3 -3 -3 -3 -3 -3 -3 -3 -4 -4 -4 -4 -4 -4 -4 -4 -4 -4 -4 -4 -4 -4 -5 -5 -5 -5 -5 -5 -5 -5 -6 -6 -6 -6 -6 -6 -6 -5 -5 -5
-3 -3 -3 -3 -3 -3 -4 -4 -4 -4 -4 -4 -4 -4 -4 -4 -5 -5 -5 -5 -5 -5 -5 -5 -5 -5 -5 -5 -5 -5 -5 -6 -6 -6 -6 -6 -6 -6 -6 -6 -6 -6 -6 -6
-3 -4 -4 -4 -4 -4 -4 -5 -5 -5 -5 -5 -5 -5 -5 -5 -5 -5 -5 -5 -5 -5 -5 -5 -5 -5 -5 -6 -6 -6 -6 -6 -6 -6 -6 -6 -6 -6 -6 -6 -6 -6 -6 -6
-4 -5 -5 -5 -5 -5 -5 -5 -5 -5 -5 -5 -5 -5 -5 -5 -5 -5 -5 -5 -5 -5 -5 -5 -6 -6 -6 -6 -6 -6 -6 -6 -6 -6 -6 -6 -6 -6 -7 -7 -7 -6 -6 -6
-4 -4 -4 -5 -5 -5 -5 -5 -5 -5 -5 -5 -5 -5 -5 -5 -5 -5 -6 -6 -6 -6 -6 -6 -6 -6 -6 -6 -6 -6 -6 -6 -7 -7 -7 -7 -7 -7 -7 -7 -7 -7 -6 -6
-4 -4 -5 -5 -5 -5 -5 -5 -5 -5 -5 -6 -6 -6 -6 -6 -6 -6 -6 -6 -6 -6 -6 -6 -6 -6 -7 -7 -7 -7 -7 -7 -7 -7 -7 -7 -7 -7 -7 -7 -7 -7 -7 -7
-5 -5 -5 -5 -5 -6 -6 -6 -6 -6 -6 -6 -6 -6 -6 -6 -6 -6 -6 -6 -6 -7 -7 -7 -7 -7 -7 -7 -7 -7 -7 -7 -7 -7 -7 -7 -7 -7 -7 -7 -7 -7 -7 -7
-5 -5 -5 -5 -6 -6 -6 -6 -6 -6 -6 -6 -6 -6 -6 -6 -7 -7 -7 -7 -7 -7 -7 -7 -7 -7 -7 -7 -7 -7 -7 -7 -7 -7 -7 -7 -7 -7 -7 -7 -7 -7 -7 -7
-5 -6 -6 -6 -6 -6 -6 -6 -6 -6 -6 -6 -7 -7 -7 -7 -7 -7 -7 -7 -7 -7 -7 -7 -7 -7 -7 -7 -7 -7 -7 -7 -7 -7 -8 -8 -8 -8 -8 -8 -8 -8 -8 -8
-6 -6 -6 -6 -6 -6 -6 -6 -6 -6 -7 -7 -7 -7 -7 -7 -7 -7 -7 -7 -7 -7 -7 -7 -8 -8 -8 -7 -7 -7 -7 -8 -8 -8 -8 -8 -8 -8 -8 -8 -8 -8 -8 -8
-6 -6 -6 -7 -7 -7 -7 -7 -7 -7 -7 -7 -7 -7 -7 -7 -7 -7 -8 -8 -8 -8 -8 -8 -8 -8 -8 -8 -8 -8 -8 -8 -8 -8 -8 -8 -8 -8 -8 -8 -8 -8 -8 -8
-7 -7 -7 -7 -7 -7 -7 -7 -7 -7 -7 -7 -7 -8 -8 -8 -8 -8 -8 -8 -8 -8 -8 -8 -8 -8 -8 -8 -8 -8 -8 -8 -8 -8 -8 -8 -8 -8 -8 -8 -9 -9 -9 -8
-7 -7 -7 -7 -7 -8 -8 -8 -8 -8 -8 -8 -8 -8 -8 -8 -8 -8 -8 -8 -8 -8 -8 -8 -8 -8 -8 -8 -8 -8 -8 -8 -8 -8 -8 -9 -9 -9 -9 -9 -9 -9 -9 -9
-8 -8 -8 -8 -8 -8 -8 -8 -8 -8 -8 -8 -8 -8 -8 -8 -8 -8 -8 -9 -9 -8 -8 -8 -8 -8 -8 -8 -8 -8 -8 -9 -9 -9 -9 -9 -9 -9 -9 -9 -9 -9 -9 -9
Wind_Speed
3 3 1 4 6 7 8 8 6 5 6 6 3 2 1 1 1 2 2 2 1 0 0 1 1 1 1 1 1 1 1 1 1 1 1 2 2 2 2 2 2 2 3 3
3 3 2 5 7 8 9 8 9 8 9 5 3 1 1 1 1 1 2 2 1 1 0 0 0 0 1 1 1 1 1 1 1 1 1 2 2 2 2 2 2 2 2 2
3 1 2 6 7 9 6 6 6 9 8 3 2 2 2 2 2 2 2 2 2 1 1 1 0 0 1 0 0 1 1 1 1 1 1 1 2 2 2 2 2 2 2 2
1 0 6 5 2 5 6 6 6 5 4 3 3 3 2 1 1 1 1 1 2 1 1 1 0 0 0 0 0 1 1 1 1 1 1 1 1 2 2 2 2 2 3 3
2 4 6 3 1 2 4 5 5 7 5 4 2 3 1 0 1 1 1 1 2 1 1 1 1 1 1 1 1 1 1 1 1 0 1 1 2 2 2 2 2 2 3 3
3 4 5 3 1 2 2 3 2 4 5 3 1 2 3 1 0 1 0 1 1 1 1 1 1 1 1 1 1 2 1 1 1 1 1 1 2 2 2 2 2 3 3 3
5 5 5 1 1 3 3 5 2 1 3 3 3 4 2 1 1 1 0 1 1 1 1 1 1 1 1 1 2 2 1 1 1 1 1 1 2 2 2 2 2 3 3 3
5 5 6 2 3 4 3 1 2 1 1 2 1 0 0 1 1 0 1 1 1 1 1 1 1 1 1 2 2 1 0 1 1 1 1 1 1 2 2 2 2 3 3 3
5 5 2 4 3 2 0 1 2 1 1 1 1 1 1 1 1 1 1 0 1 1 1 1 1 1 2 3 1 1 1 2 2 2 2 2 2 2 2 2 2 3 3 3
3 4 3 4 2 2 1 1 1 1 0 1 1 2 2 2 2 1 1 0 0 1 1 2 2 1 2 2 1 1 1 2 2 2 2 2 2 2 2 2 3 3 3 3
4 4 2 3 3 2 0 0 1 1 1 1 2 2 3 2 2 2 1 1 1 1 2 3 2 2 2 2 1 1 2 2 2 2 2 2 2 2 3 3 4 4 3 3
5 3 3 2 1 1 1 2 1 1 1 1 2 3 2 2 2 1 1 1 1 2 2 3 3 3 2 1 2 2 2 2 2 2 2 2 2 3 4 5 6 6 6 5
2 0 1 1 1 1 1 1 1 1 2 2 2 1 2 2 2 1 2 2 2 3 3 3 3 3 2 2 2 3 3 3 2 2 2 2 2 2 3 5 6 5 6 7
1 1 1 1 1 1 0 1 1 1 1 1 1 1 1 1 2 2 2 2 3 3 3 3 3 4 3 2 2 3 3 3 3 2 2 2 3 3 3 3 4 4 5 6
1 0 2 1 1 1 0 1 1 1 1 1 0 1 1 2 3 3 3 2 2 3 3 3 3 4 2 2 2 3 3 2 2 2 3 3 2 2 3 3 3 4 3 4
1 1 1 1 1 1 1 1 2 3 2 2 1 2 2 2 3 3 3 2 2 3 3 3 4 3 2 2 2 2 3 4 3 2 2 2 2 2 3 3 3 3 4 4
2 2 2 2 2 2 2 2 3 3 2 2 2 2 1 2 2 3 3 2 2 3 4 3 4 3 3 2 3 2 2 3 4 3 2 2 2 3 3 3 3 3 4 5
3 3 3 3 3 3 3 2 2 2 2 2 1 1 1 2 3 3 3 2 3 3 3 3 3 3 2 2 2 2 2 2 2 2 2 2 3 3 3 3 4 4 4 5
1 2 2 2 2 2 2 2 2 2 1 1 1 1 2 2 2 3 2 2 3 4 3 3 4 2 2 3 3 2 2 2 2 2 2 4 3 3 3 3 4 4 4 4
0 0 0 1 1 1 2 1 1 1 1 0 0 1 2 2 2 2 2 2 3 3 3 3 3 2 2 3 3 2 2 2 2 2 2 3 3 3 3 3 3 4 4 4
0 0 1 0 1 1 0 1 1 1 1 0 1 2 2 3 2 1 2 3 3 2 2 4 2 2 2 2 2 1 2 2 2 2 3 3 3 3 3 3 3 3 4 4
0 0 0 1 1 1 1 1 0 1 1 1 1 1 2 2 2 2 2 3 3 4 2 2 2 3 3 2 1 1 2 2 2 2 2 2 3 3 3 3 3 3 4 4
0 0 0 0 0 0 1 1 1 0 1 1 2 2 2 3 2 2 3 2 2 3 2 2 3 4 3 1 1 1 2 2 2 2 2 3 3 3 3 3 3 3 4 4
0 1 1 0 1 1 1 2 1 1 1 2 2 2 2 2 2 2 2 4 4 4 2 3 5 4 3 1 1 1 1 2 2 2 2 2 3 3 3 3 3 4 4 4
0 0 0 1 1 1 1 1 2 2 2 2 2 2 1 1 2 3 2 3 4 4 2 4 5 4 2 1 1 1 2 2 2 2 2 3 3 3 3 3 4 4 4 4
0 0 0 1 1 1 1 1 1 2 2 2 2 2 2 2 2 2 2 2 3 3 2 2 2 2 1 1 1 2 2 2 3 3 3 3 3 3 3 4 4 4 4 4
0 0 0 0 1 1 1 1 1 2 2 2 2 3 2 2 2 2 2 2 2 2 2 2 1 1 1 1 2 2 2 2 2 2 3 3 3 3 4 4 4 4 4 5
Wind_Direction
266 291 227 225 220 206 214 226 227 250 258 255 236 214 203 166 149 144 153 147 136 119 75 90 66 53 54 33 29 10 3 360 338 346 4 6 353 338 329 324 326 335 337 335
255 229 244 261 244 222 226 238 247 267 273 266 247 206 226 192 186 201 189 181 183 182 180 11 43 29 45 23 17 6 337 335 351 359 14 9 356 351 349 345 337 340 333 336
243 227 294 259 233 216 219 223 219 238 250 267 273 239 234 238 214 212 195 190 193 195 205 228 290 287 209 216 348 327 310 333 338 341 358 355 344 354 348 340 335 333 323 328
245 254 238 240 202 197 209 232 222 237 266 265 260 264 258 216 191 222 201 201 208 196 183 177 195 272 202 171 228 250 251 278 306 336 348 347 344 339 329 330 332 332 327 325
200 239 261 239 213 166 193 254 229 232 257 282 333 325 279 179 159 214 204 198 193 178 167 160 181 210 170 217 231 235 241 251 296 353 347 339 326 319 320 326 326 323 317 319
211 231 242 228 131 121 112 265 259 217 239 242 90 253 259 342 5 291 249 132 130 122 121 153 189 156 186 231 233 241 247 258 279 288 287 292 298 308 316 314 306 308 311 314
221 236 254 230 163 125 169 245 308 224 227 200 209 234 258 23 6 340 98 107 109 118 151 204 199 156 229 241 243 253 276 293 283 274 267 269 287 299 304 306 306 306 303 304
199 222 240 164 139 178 212 341 360 347 225 200 230 284 358 354 330 18 91 110 120 144 214 244 204 197 241 252 251 236 253 272 269 263 269 282 276 290 294 295 297 299 301 304
198 213 198 162 177 203 247 305 325 333 315 152 197 259 276 287 289 274 225 184 146 169 237 263 239 208 240 264 256 213 238 258 268 272 269 259 255 263 281 287 287 291 294 299
246 246 217 201 211 241 261 284 347 352 295 161 225 248 265 270 272 260 257 212 178 199 251 274 274 252 249 261 245 214 239 260 270 262 274 272 274 266 264 269 275 283 289 294
239 256 261 225 213 218 205 22 357 343 286 217 218 243 251 257 251 250 267 272 230 233 256 274 283 276 272 263 228 229 251 260 265 262 258 267 280 274 271 259 258 265 270 276
222 209 205 234 177 147 197 238 234 253 283 265 235 247 258 258 254 253 258 261 255 257 262 273 279 276 271 250 220 219 245 252 254 257 261 263 273 298 300 287 286 282 282 283
197 125 200 254 8 62 202 257 262 239 240 261 266 239 236 252 266 265 266 260 254 259 264 271 277 277 270 238 226 224 238 248 254 260 260 265 274 284 301 312 305 298 295 297
141 93 247 242 285 7 359 342 340 303 278 249 240 224 223 254 269 267 264 267 267 266 268 269 271 274 268 232 223 231 240 254 255 250 251 255 261 270 278 290 304 308 307 304
231 229 219 266 331 342 33 61 7 313 310 307 225 213 229 252 265 271 273 282 287 278 271 268 268 273 270 229 226 237 241 240 242 247 250 253 258 267 275 281 286 296 308 309
244 272 224 234 255 281 306 284 265 272 278 273 262 256 256 258 268 279 284 275 270 275 277 272 268 270 265 237 232 241 243 251 254 249 248 253 258 262 270 276 283 289 293 298
181 237 241 248 250 258 260 259 250 259 268 265 262 272 287 295 295 293 293 290 279 279 279 271 270 275 267 244 230 237 243 251 257 260 252 254 259 262 267 271 277 285 288 290
208 221 221 220 228 248 267 271 264 263 262 262 258 258 265 266 273 290 300 312 315 306 297 281 274 275 262 247 237 235 238 245 250 255 261 262 268 269 271 273 277 282 290 293
225 231 241 237 229 226 241 258 261 262 272 243 225 250 265 272 275 288 303 312 301 295 297 291 292 292 267 256 259 236 230 239 255 263 262 266 275 273 273 273 276 280 285 292
6 336 287 281 261 231 243 259 264 285 281 247 248 285 294 293 288 288 293 288 276 272 284 293 294 278 264 260 265 234 223 234 246 254 260 261 264 269 271 273 276 278 281 287
347 0 3 347 336 327 253 233 214 261 291 284 238 259 279 296 295 282 284 293 297 295 294 298 302 280 266 265 260 233 228 239 249 252 256 261 267 272 273 275 279 283 286 289
174 86 13 18 23 346 339 340 282 267 298 305 294 287 290 294 293 287 268 265 286 309 320 302 293 283 288 284 244 239 246 252 257 259 260 263 267 272 277 280 281 285 287 288
163 167 61 47 39 336 347 347 323 289 284 282 278 271 269 273 273 277 295 298 291 303 315 293 296 300 307 301 258 252 253 257 258 261 264 266 268 271 276 281 283 286 288 290
54 9 1 19 56 45 348 332 331 316 287 284 275 265 266 282 295 282 275 292 308 311 311 298 304 308 313 317 274 266 266 261 260 263 269 273 274 276 278 281 285 287 287 289
82 3 63 49 21 320 302 321 338 334 327 318 305 293 278 257 260 284 296 295 300 313 314 306 309 311 316 288 273 271 270 265 266 270 267 272 272 276 280 283 284 286 288 288
146 224 236 259 261 281 296 316 322 322 329 326 322 321 323 314 288 284 292 295 297 307 310 300 296 296 291 272 270 273 271 275 283 282 275 275 277 278 279 282 283 285 286 286
166 143 82 4 354 329 309 304 303 306 310 307 310 317 320 320 316 309 307 307 307 307 303 300 292 281 274 273 275 276 276 273 268 269 272 274 277 278 278 279 284 285 287 287
Height
1476 1474 1475 1477 1479 1481 1483 1480 1480 1474 1472 1469 1470 1471 1471 1472 1473 1474 1474 1475 1475 1475 1476 1476 1476 1476 1476 1475 1475 1475 1475 1475 1474 1474 1474 1474 1474 1474 1473 1473 1472 1472 1471 1471
1478 1475 1476 1477 1475 1476 1477 1477 1476 1474 1472 1467 1468 1469 1470 1471 1471 1472 1473 1473 1473 1474 1474 1474 1474 1473 1473 1473 1473 1473 1472 1472 1472 1472 1471 1471 1471 1471 1470 1470 1469 1468 1468 1468
1479 1477 1476 1478 1473 1472 1472 1470 1471 1472 1468 1466 1467 1467 1468 1468 1469 1470 1470 1471 1471 1471 1471 1471 1471 1471 1471 1470 1470 1470 1470 1470 1470 1469 1469 1468 1468 1468 1467 1467 1466 1465 1465 1465
1480 1481 1483 1468 1463 1463 1465 1466 1466 1466 1464 1464 1465 1465 1466 1466 1467 1467 1468 1468 1469 1469 1469 1469 1469 1469 1468 1468 1468 1468 1467 1467 1467 1467 1466 1466 1465 1465 1465 1464 1463 1463 1462 1462
1480 1479 1469 1465 1463 1463 1465 1466 1463 1463 1463 1463 1463 1464 1464 1464 1465 1465 1466 1466 1466 1466 1466 1466 1466 1466 1466 1466 1465 1465 1465 1465 1465 1464 1464 1463 1463 1463 1462 1461 1461 1461 1460 1459
1476 1475 1471 1462 1461 1460 1464 1467 1460 1459 1460 1461 1462 1466 1463 1462 1462 1462 1463 1463 1463 1463 1464 1464 1464 1463 1463 1463 1463 1463 1463 1463 1462 1462 1461 1461 1460 1460 1460 1459 1458 1458 1457 1457
1474 1473 1465 1462 1460 1461 1468 1464 1458 1457 1457 1459 1460 1461 1460 1460 1460 1460 1460 1460 1461 1461 1461 1461 1461 1461 1461 1460 1460 1460 1460 1460 1460 1460 1459 1458 1458 1458 1457 1456 1456 1455 1455 1454
1471 1471 1466 1461 1460 1462 1461 1458 1457 1456 1456 1457 1457 1458 1457 1457 1457 1457 1457 1458 1458 1458 1458 1458 1459 1458 1458 1458 1458 1458 1457 1457 1457 1457 1456 1456 1456 1455 1455 1454 1453 1452 1452 1451
1463 1462 1457 1456 1456 1456 1457 1456 1456 1455 1455 1455 1455 1455 1455 1455 1455 1455 1455 1455 1455 1455 1455 1456 1456 1456 1455 1455 1455 1455 1454 1454 1454 1454 1454 1454 1453 1452 1452 1451 1451 1450 1449 1448
1458 1455 1454 1454 1454 1454 1454 1455 1454 1454 1454 1453 1453 1453 1453 1453 1453 1452 1453 1453 1453 1453 1452 1452 1453 1453 1453 1452 1452 1452 1451 1451 1451 1451 1451 1451 1450 1450 1449 1449 1448 1447 1446 1445
1456 1453 1452 1451 1451 1452 1452 1452 1452 1452 1452 1451 1451 1451 1450 1450 1450 1450 1450 1450 1450 1450 1450 1450 1449 1449 1449 1449 1449 1448 1448 1448 1448 1448 1448 1448 1448 1447 1447 1446 1446 1445 1444 1443
1451 1449 1450 1449 1448 1449 1449 1448 1449 1449 1448 1448 1448 1448 1447 1447 1447 1447 1447 1447 1447 1447 1447 1446 1446 1446 1446 1446 1446 1445 1445 1445 1445 1445 1445 1445 1444 1444 1444 1444 1443 1442 1441 1440
1446 1446 1446 1446 1446 1447 1446 1446 1446 1446 1445 1445 1445 1445 1445 1444 1445 1444 1444 1444 1444 1444 1444 1443 1443 1443 1443 1443 1443 1442 1442 1442 1442 1442 1442 1442 1441 1441 1440 1440 1440 1439 1438 1437
1443 1444 1444 1444 1444 1444 1444 1444 1443 1443 1443 1443 1442 1442 1442 1442 1442 1442 1441 1441 1441 1441 1440 1440 1440 1440 1440 1440 1439 1439 1439 1439 1439 1439 1439 1439 1438 1438 1438 1436 1435 1434 1434 1434
1441 1442 1442 1442 1442 1442 1441 1441 1441 1440 1440 1440 1440 1439 1439 1439 1439 1438 1438 1438 1438 1437 1437 1437 1437 1437 1437 1436 1436 1436 1436 1436 1436 1436 1436 1436 1436 1435 1435 1434 1433 1432 1431 1430
1439 1439 1439 1439 1439 1439 1439 1439 1438 1437 1437 1437 1437 1437 1437 1436 1436 1436 1435 1435 1435 1434 1434 1434 1433 1433 1433 1433 1433 1433 1433 1433 1433 1433 1433 1433 1432 1432 1431 1431 1430 1429 1428 1427
1436 1436 1436 1436 1436 1436 1436 1436 1435 1435 1435 1434 1434 1434 1434 1433 1433 1432 1432 1432 1432 1431 1431 1430 1430 1430 1430 1430 1430 1430 1430 1430 1430 1430 1430 1430 1429 1429 1428 1428 1427 1426 1425 1425
1434 1434 1434 1434 1434 1434 1434 1434 1433 1433 1432 1432 1432 1431 1431 1430 1430 1430 1429 1429 1429 1428 1428 1428 1427 1427 1427 1427 1427 1427 1427 1427 1427 1427 1427 1427 1426 1426 1425 1425 1424 1423 1422 1422
1431 1431 1432 1432 1432 1432 1431 1431 1431 1430 1430 1430 1429 1429 1428 1428 1428 1427 1427 1427 1426 1426 1426 1425 1425 1424 1424 1424 1424 1424 1424 1424 1424 1424 1424 1424 1423 1423 1422 1422 1421 1420 1419 1418
1429 1429 1430 1430 1430 1430 1429 1429 1429 1428 1428 1428 1427 1427 1426 1426 1426 1425 1425 1424 1424 1424 1423 1423 1422 1422 1422 1422 1422 1422 1422 1422 1422 1421 1421 1421 1420 1420 1419 1419 1418 1417 1416 1415
1427 1428 1428 1428 1428 1428 1428 1427 1427 1427 1426 1426 1426 1425 1425 1424 1424 1424 1423 1422 1423 1422 1422 1421 1421 1420 1420 1420 1420 1419 1419 1419 1419 1419 1418 1418 1417 1417 1416 1416 1415 1414 1413 1412
1426 1426 1426 1426 1426 1426 1426 1426 1426 1425 1425 1424 1424 1424 1423 1423 1422 1422 1421 1421 1421 1420 1420 1419 1419 1418 1418 1418 1417 1417 1417 1416 1416 1416 1416 1415 1415 1414 1413 1413 1412 1411 1410 1409
1425 1425 1425 1425 1424 1424 1424 1424 1424 1424 1423 1423 1422 1422 1421 1421 1420 1420 1419 1419 1419 1418 1418 1417 1417 1416 1416 1415 1415 1414 1414 1414 1414 1413 1413 1413 1412 1411 1411 1410 1409 1408 1407 1406
1424 1424 1424 1424 1423 1423 1423 1422 1422 1422 1422 1421 1421 1420 1420 1419 1419 1419 1418 1417 1417 1416 1416 1415 1415 1414 1414 1413 1413 1412 1412 1412 1411 1411 1411 1410 1409 1409 1408 1407 1406 1405 1404 1403
1423 1423 1423 1422 1422 1422 1421 1421 1421 1420 1420 1419 1419 1419 1418 1418 1417 1416 1416 1415 1415 1414 1414 1413 1413 1412 1412 1411 1411 1410 1410 1410 1409 1409 1408 1407 1407 1406 1405 1405 1404 1403 1401 1400
1422 1422 1422 1422 1421 1421 1420 1420 1419 1419 1418 1418 1417 1417 1416 1416 1415 1415 1414 1413 1413 1412 1412 1411 1411 1410 1410 1409 1409 1408 1408 1407 1407 1406 1406 1405 1404 1403 1403 1402 1401 1400 1399 1397
1421 1421 1420 1420 1420 1420 1419 1419 1418 1418 1417 1416 1416 1415 1415 1414 1413 1413 1412 1411 1411 1410 1410 1409 1408 1408 1407 1407 1406 1406 1405 1405 1404 1404 1403 1403 1402 1401 1400 1399 1398 1397 1396 1395